Regional Weather Roundup
Issued by NWS Kansas City/Pleasant Hill, MO

Home | Current Version | Previous Version | Text Only | Print | Product List | Glossary On
Versions: 1 2 3 4 5 6 7 8 9 10 11 12 13 14 15 16 17 18 19 20 21 22 23 24 25 26 27 28 29 30 31 32 33 34 35 36 37 38 39 40 41 42 43 44 45 46 47 48 49 50
000
ASUS43 KEAX 161811
RWREAX

WEATHER ROUNDUP FOR EASTERN KANSAS AND NORTHWEST MISSOURI
NATIONAL WEATHER SERVICE KANSAS CITY/PLEASANT HILL MO
100 PM CDT WED APR 16 2014

KSZ040-057-103>105-MOZ028-029-037-043-161900-
...KANSAS CITY METROPOLITAN AREA...

CITY           SKY/WX    TMP DP  RH WIND       PRES   REMARKS
K.C. INTL      PTSUNNY   60  29  30 S32G44    29.87F
6HR MIN TEMP:  44; 6HR MAX TEMP:  62;

K.C. DOWNTOWN  FAIR      64  30  27 S24G38    29.91F
6HR MIN TEMP:  46; 6HR MAX TEMP:  64; 6HR PCP: TRACE;

LEES SUMMIT    FAIR      60  31  33 S17G37    29.93F
6HR MIN TEMP:  43; 6HR MAX TEMP:  60;

OLATHE - IXD   FAIR      61  33  35 S25G35    29.91F
6HR MIN TEMP:  43; 6HR MAX TEMP:  61;

OLATHE - OJC   FAIR      59  31  34 S23G44    29.91F
6HR MIN TEMP:  41; 6HR MAX TEMP:  59;

LAWRENCE       FAIR      62  32  32 S28G41    29.88F

$$

MOZ001>008-011>017-020>025-030>033-038>040-044>046-053-054-161900-
...NORTHERN AND CENTRAL MISSOURI...

CITY           SKY/WX    TMP DP  RH WIND       PRES   REMARKS
ST. JOSEPH     FAIR      62  30  29 S31G40    29.84F
6HR MIN TEMP:  45; 6HR MAX TEMP:  63;

MOSBY          FAIR      61  32  33 S24G36    29.92S
WARRENSBURG    FAIR     N/A N/A N/A S23G33    29.97F
WHITEMAN AFB   FAIR      60  33  36 S18G30    29.99F
6HR MIN TEMP:  41; 6HR MAX TEMP:  60;

CLINTON        FAIR      61  36  39 S21G30    30.02F
SEDALIA        FAIR      61  31  32 S24G33    30.02F
6HR MIN TEMP:  43; 6HR MAX TEMP:  61;

WARSAW         NOT AVBL
MARSHALL         N/A     61  39  44 S22G29    30.04
CHILLICOTHE      N/A     60  32  34 S18G36    29.93F
6HR MIN TEMP:  42; 6HR MAX TEMP:  61;

MOBERLY        FAIR      59  32  36 SE21G28   30.05F
KIRKSVILLE     FAIR      61  29  29 S30G39    30.00F
6HR MIN TEMP:  36; 6HR MAX TEMP:  61;


$$

MOZ041-047>049-056>058-063>065-088>090-097-161900-
...EASTERN AND SOUTHERN MISSOURI...

CITY           SKY/WX    TMP DP  RH WIND       PRES   REMARKS
ST. LOUIS INTL PTSUNNY   54  25  32 SE21G26   30.21F
6HR MIN TEMP:  39; 6HR MAX TEMP:  54;

SPIRIT OF STL  PTSUNNY   54  25  32 S14G25    30.17F
COLUMBIA       FAIR      58  29  33 SE25G33   30.07F
JEFFERSON CITY FAIR      57  27  31 S22G30    30.09F
MEXICO         FAIR      54  34  47 SE21G29   30.09F
HANNIBAL       FAIR      59  23  25 S20G26    30.09F
ROLLA          FAIR      56  29  35 SE20G30   30.10F
LEBANON        FAIR      55  27  33 S22G29    30.08F
OSAGE BEACH    FAIR      57  28  33 SE21G28   30.10F
SPRINGFIELD    FAIR      58  32  37 S24G33    30.05F
BRANSON        CLOUDY    55  27  33 SE18G28   30.11F
JOPLIN         FAIR      61  27  27 S29G36    30.01F
WEST PLAINS    FAIR      51  25  36 SE16G23   30.17F
MALDEN         FAIR      54  30  40 E5        30.26F

$$

IAZ060-094-KSZ022-034>040-054-083-096-NEZ052-066-093-161900-
...KANSAS...SOUTHEAST NEBRASKA AND IOWA...

CITY           SKY/WX    TMP DP  RH WIND       PRES   REMARKS
TOPEKA         FAIR      64  31  28 S22G33    29.86S
6HR MIN TEMP:  47; 6HR MAX TEMP:  64;

MANHATTAN      FAIR      66  28  24 SW26G44   29.77F
EMPORIA        FAIR      63  27  25 S31G45    29.87S
CHANUTE        FAIR      60  33  36 S29G40    29.95F
WICHITA        PTSUNNY   65  27  23 S32G46    29.85F
OMAHA          CLOUDY    60  28  29 S23G32    29.70F
LINCOLN        FAIR      63  26  24 S25G35    29.71S
FALLS CITY     FAIR      62  29  28 S29G43    29.79F
LAMONI         FAIR      58  30  34 S23G39    29.85F
DES MOINES     CLOUDY    63  30  28 S32G40    29.83F

$$




USA.gov is the U.S. government's official web portal to all federal, state and local government web resources and services.